Location: *
(2.5500°S, 65.9667°W)
Time: 12:53:17
(UTC+00:00)

Okean O Rocket - Visible Passes

Search period start: 29 May 2022 00:00
Search period end: 08 June 2022 00:00
Orbit: 621 x 644 km, 98.2° (Epoch: 28 May)

Date Brightness Start Highest point End Pass type
(mag) Time Alt. Az. Time Alt. Az. Time Alt. Az.
30 May 2.8 00:03:40 21° SSW 00:06:01 39° WSW 00:10:04 10° NNW visible
30 May 3.2 22:48:23 10° ESE 22:51:08 17° ENE 22:53:52 10° NE visible
31 May 3.9 00:25:10 15° SW 00:27:12 20° WSW 00:30:23 10° NW visible
31 May 2.3 23:09:15 14° SE 23:12:21 32° ENE 23:16:12 10° NNE visible
01 Jun 1.5 23:30:45 21° SSE 23:33:33 66° ENE 23:37:50 10° N visible
02 Jun 2.0 23:52:15 24° S 23:54:46 59° WSW 23:59:01 10° NNW visible
04 Jun 3.3 00:13:46 19° SSW 00:15:57 29° WSW 00:19:42 10° NW visible
04 Jun 2.8 22:57:49 11° SE 23:01:04 22° ENE 23:04:25 10° NNE visible
05 Jun 4.2 00:35:16 12° SW 00:37:08 15° WSW 00:39:35 10° WNW visible
05 Jun 1.9 23:19:20 18° SE 23:22:17 44° ENE 23:26:23 10° N visible
06 Jun 1.5 23:40:49 23° SSE 23:43:30 89° W 23:47:48 10° NNW visible
